Time,TemperatureF,DewpointF,PressureIn,WindDirection,WindDirectionDegrees,WindSpeedMPH,WindSpeedGustMPH,Humidity,HourlyPrecipIn,Conditions,Clouds,dailyrainin,SoftwareType,DateUTC
2013-07-25 00:01:00,76.6,75.4,29.81,SSW,205,0.0,0.0,96,0.00,,---,0.00,VWS V14.01,2013-07-25 04:01:00,
2013-07-25 00:02:00,76.7,75.5,29.81,SSW,205,0.0,0.0,96,0.00,,---,0.00,VWS V14.01,2013-07-25 04:02:00,
2013-07-25 00:03:00,76.6,75.4,29.81,SSW,205,0.0,0.0,96,0.00,,---,0.00,VWS V14.01,2013-07-25 04:03:00,
2013-07-25 00:08:00,76.5,75.3,29.81,SSW,205,0.0,0.0,96,0.00,,---,0.00,VWS V14.01,2013-07-25 04:08:00,
2013-07-25 00:14:00,76.5,75.3,29.81,SSW,205,0.0,0.0,96,0.00,,---,0.00,VWS V14.01,2013-07-25 04:14:00,
2013-07-25 00:19:00,76.5,75.3,29.81,SSW,205,0.0,0.0,96,0.00,,---,0.00,VWS V14.01,2013-07-25 04:19:00,
2013-07-25 00:24:00,76.5,75.3,29.81,SSW,205,0.0,0.0,96,0.00,,---,0.00,VWS V14.01,2013-07-25 04:24:00,
2013-07-25 00:29:00,76.5,75.3,29.81,SSW,205,0.0,0.0,96,0.00,,---,0.00,VWS V14.01,2013-07-25 04:29:00,
2013-07-25 00:34:00,76.5,75.3,29.81,SSW,205,0.0,0.0,96,0.00,,---,0.00,VWS V14.01,2013-07-25 04:34:00,
2013-07-25 00:39:00,76.6,75.4,29.81,SSW,205,0.0,1.0,96,0.00,,---,0.00,VWS V14.01,2013-07-25 04:39:00,
2013-07-25 00:44:00,76.6,75.4,29.81,SSW,205,0.0,1.0,96,0.00,,---,0.00,VWS V14.01,2013-07-25 04:44:00,
2013-07-25 00:49:00,76.6,75.4,29.81,SSW,205,0.0,1.0,96,0.00,,---,0.00,VWS V14.01,2013-07-25 04:49:00,
2013-07-25 00:54:00,76.5,75.3,29.81,SSW,205,0.0,1.0,96,0.00,,---,0.00,VWS V14.01,2013-07-25 04:54:00,
2013-07-25 00:59:00,76.6,75.4,29.81,SSW,205,1.0,2.0,96,0.00,,---,0.00,VWS V14.01,2013-07-25 04:59:00,
2013-07-25 01:04:00,76.6,75.4,29.81,SSW,205,2.0,2.0,96,0.00,,---,0.00,VWS V14.01,2013-07-25 05:04:00,
2013-07-25 01:09:00,76.6,75.4,29.81,SSW,205,0.0,2.0,96,0.00,,---,0.00,VWS V14.01,2013-07-25 05:09:00,
2013-07-25 01:14:00,76.6,75.4,29.80,SSW,205,2.0,2.0,96,0.00,,---,0.00,VWS V14.01,2013-07-25 05:14:00,
2013-07-25 01:19:00,76.7,75.8,29.79,SSW,205,3.0,3.0,97,0.00,,---,0.00,VWS V14.01,2013-07-25 05:19:00,
2013-07-25 01:24:00,76.8,75.9,29.80,North,350,4.0,4.0,97,0.00,,---,0.00,VWS V14.01,2013-07-25 05:24:00,
2013-07-25 01:29:00,76.7,75.8,29.79,North,360,3.0,3.0,97,0.00,,---,0.00,VWS V14.01,2013-07-25 05:29:00,
2013-07-25 01:34:00,76.6,75.7,29.80,North,5,2.0,3.0,97,0.00,,---,0.00,VWS V14.01,2013-07-25 05:34:00,
2013-07-25 01:39:00,76.6,75.7,29.80,North,5,2.0,3.0,97,0.00,,---,0.00,VWS V14.01,2013-07-25 05:39:00,
2013-07-25 01:44:00,76.7,75.8,29.79,North,5,2.0,3.0,97,0.00,,---,0.00,VWS V14.01,2013-07-25 05:44:00,
2013-07-25 01:49:00,76.7,75.8,29.79,North,5,0.0,3.0,97,0.00,,---,0.00,VWS V14.01,2013-07-25 05:49:00,
2013-07-25 01:55:00,76.7,75.8,29.79,North,5,2.0,3.0,97,0.00,,---,0.00,VWS V14.01,2013-07-25 05:55:00,
2013-07-25 02:00:00,76.6,75.7,29.78,North,5,3.0,4.0,97,0.00,,---,0.00,VWS V14.01,2013-07-25 06:00:00,
2013-07-25 02:05:00,76.5,75.6,29.78,North,5,2.0,4.0,97,0.00,,---,0.00,VWS V14.01,2013-07-25 06:05:00,
2013-07-25 02:10:00,76.4,75.5,29.78,North,360,4.0,5.0,97,0.00,,---,0.00,VWS V14.01,2013-07-25 06:10:00,
2013-07-25 02:15:00,76.3,75.4,29.78,North,11,4.0,6.0,97,0.00,,---,0.00,VWS V14.01,2013-07-25 06:15:00,
2013-07-25 02:20:00,76.2,75.3,29.78,North,355,6.0,6.0,97,0.00,,---,0.00,VWS V14.01,2013-07-25 06:20:00,
2013-07-25 02:25:00,76.1,75.2,29.78,North,5,7.0,7.0,97,0.00,,---,0.00,VWS V14.01,2013-07-25 06:25:00,
2013-07-25 02:30:00,76.0,75.1,29.77,North,5,8.0,10.0,97,0.00,,---,0.00,VWS V14.01,2013-07-25 06:30:00,
2013-07-25 02:35:00,75.9,75.0,29.77,North,5,7.0,11.0,97,0.00,,---,0.00,VWS V14.01,2013-07-25 06:35:00,
2013-07-25 02:40:00,75.8,74.9,29.78,NNE,13,8.0,11.0,97,0.00,,---,0.00,VWS V14.01,2013-07-25 06:40:00,
2013-07-25 02:45:00,75.7,74.8,29.77,NNE,14,6.0,11.0,97,0.00,,---,0.00,VWS V14.01,2013-07-25 06:45:00,
2013-07-25 02:50:00,75.6,74.7,29.77,NNE,16,5.0,11.0,97,0.00,,---,0.00,VWS V14.01,2013-07-25 06:50:00,
2013-07-25 02:55:00,75.5,74.6,29.77,NNE,15,5.0,11.0,97,0.00,,---,0.00,VWS V14.01,2013-07-25 06:55:00,
2013-07-25 03:00:00,75.5,74.6,29.77,NNE,16,7.0,7.0,97,0.00,,---,0.00,VWS V14.01,2013-07-25 07:00:00,
2013-07-25 03:05:00,75.4,74.5,29.77,NNE,26,6.0,9.0,97,0.00,,---,0.00,VWS V14.01,2013-07-25 07:05:00,
2013-07-25 03:10:00,75.4,74.5,29.77,NNE,26,6.0,9.0,97,0.00,,---,0.00,VWS V14.01,2013-07-25 07:10:00,
2013-07-25 03:15:00,75.4,74.5,29.77,NNE,20,6.0,9.0,97,0.00,,---,0.00,VWS V14.01,2013-07-25 07:15:00,
2013-07-25 03:20:00,75.3,74.4,29.77,NNE,17,4.0,9.0,97,0.00,,---,0.00,VWS V14.01,2013-07-25 07:20:00,
2013-07-25 03:25:00,75.3,74.7,29.77,NNE,12,5.0,9.0,98,0.00,,---,0.00,VWS V14.01,2013-07-25 07:25:00,
2013-07-25 03:31:00,75.3,74.7,29.77,NNE,19,4.0,5.0,98,0.00,,---,0.00,VWS V14.01,2013-07-25 07:31:00,
2013-07-25 03:36:00,75.3,74.7,29.77,NNE,28,6.0,6.0,98,0.00,,---,0.00,VWS V14.01,2013-07-25 07:36:00,
2013-07-25 03:41:00,75.2,74.6,29.76,NNE,19,5.0,6.0,98,0.00,,---,0.00,VWS V14.01,2013-07-25 07:41:00,
2013-07-25 03:46:00,75.2,74.6,29.76,NNE,20,4.0,6.0,98,0.00,,---,0.00,VWS V14.01,2013-07-25 07:46:00,
2013-07-25 03:51:00,75.1,74.5,29.76,NNE,20,4.0,6.0,98,0.00,,---,0.00,VWS V14.01,2013-07-25 07:51:00,
2013-07-25 03:56:00,75.0,74.4,29.76,NNE,20,4.0,6.0,98,0.00,,---,0.00,VWS V14.01,2013-07-25 07:56:00,
2013-07-25 04:01:00,74.9,74.0,29.76,NNE,20,3.0,5.0,97,0.00,,---,0.00,VWS V14.01,2013-07-25 08:01:00,
2013-07-25 04:06:00,74.9,74.0,29.76,NNE,20,4.0,5.0,97,0.00,,---,0.00,VWS V14.01,2013-07-25 08:06:00,
2013-07-25 04:11:00,74.9,74.0,29.76,NE,45,3.0,5.0,97,0.00,,---,0.00,VWS V14.01,2013-07-25 08:11:00,
2013-07-25 04:16:00,74.9,74.0,29.75,NE,46,4.0,5.0,97,0.00,,---,0.00,VWS V14.01,2013-07-25 08:16:00,
2013-07-25 04:21:00,74.9,74.0,29.75,NE,53,3.0,5.0,97,0.00,,---,0.00,VWS V14.01,2013-07-25 08:21:00,
2013-07-25 04:26:00,74.8,73.9,29.75,ENE,63,3.0,5.0,97,0.00,,---,0.00,VWS V14.01,2013-07-25 08:26:00,
2013-07-25 04:31:00,74.8,73.9,29.75,ENE,65,3.0,4.0,97,0.00,,---,0.00,VWS V14.01,2013-07-25 08:31:00,
2013-07-25 04:37:00,74.9,74.0,29.75,ENE,59,1.0,4.0,97,0.00,,---,0.00,VWS V14.01,2013-07-25 08:37:00,
2013-07-25 04:42:00,74.9,74.0,29.76,ENE,59,0.0,4.0,97,0.00,,---,0.00,VWS V14.01,2013-07-25 08:42:00,
2013-07-25 04:47:00,74.8,73.9,29.77,ENE,59,0.0,4.0,97,0.00,,---,0.00,VWS V14.01,2013-07-25 08:47:00,
2013-07-25 04:52:00,74.8,73.9,29.77,ENE,59,3.0,4.0,97,0.00,,---,0.00,VWS V14.01,2013-07-25 08:52:00,
2013-07-25 04:57:00,75.0,74.1,29.77,NE,35,4.0,5.0,97,0.00,,---,0.00,VWS V14.01,2013-07-25 08:57:00,
2013-07-25 05:02:00,74.9,74.0,29.78,NE,34,5.0,5.0,97,0.00,,---,0.00,VWS V14.01,2013-07-25 09:02:00,
2013-07-25 05:07:00,74.9,74.0,29.78,NE,40,11.0,11.0,97,0.00,,---,0.00,VWS V14.01,2013-07-25 09:07:00,
2013-07-25 05:12:00,74.5,73.6,29.78,NE,54,9.0,11.0,97,0.00,,---,0.00,VWS V14.01,2013-07-25 09:12:00,
2013-07-25 05:17:00,74.4,73.5,29.78,NE,52,11.0,11.0,97,0.00,,---,0.00,VWS V14.01,2013-07-25 09:17:00,
2013-07-25 05:22:00,74.4,73.5,29.78,NE,49,4.0,12.0,97,0.00,,---,0.00,VWS V14.01,2013-07-25 09:22:00,
2013-07-25 05:27:00,74.2,73.3,29.78,East,84,7.0,7.0,97,0.00,,---,0.00,VWS V14.01,2013-07-25 09:27:00,
2013-07-25 05:32:00,74.0,73.1,29.78,ENE,60,5.0,10.0,97,0.00,,---,0.00,VWS V14.01,2013-07-25 09:32:00,
2013-07-25 05:37:00,73.8,72.9,29.78,ENE,58,10.0,12.0,97,0.00,,---,0.00,VWS V14.01,2013-07-25 09:37:00,
2013-07-25 05:42:00,73.8,72.9,29.79,NE,44,5.0,12.0,97,0.00,,---,0.00,VWS V14.01,2013-07-25 09:42:00,
2013-07-25 05:47:00,73.9,72.7,29.79,NNE,17,6.0,12.0,96,0.00,,---,0.00,VWS V14.01,2013-07-25 09:47:00,
2013-07-25 05:52:00,73.6,72.4,29.79,NNE,28,6.0,12.0,96,0.00,,---,0.00,VWS V14.01,2013-07-25 09:52:00,
2013-07-25 05:58:00,73.3,71.8,29.79,NE,46,10.0,10.0,95,0.00,,---,0.00,VWS V14.01,2013-07-25 09:58:00,
2013-07-25 06:03:00,73.2,71.7,29.79,NE,44,9.0,11.0,95,0.00,,---,0.00,VWS V14.01,2013-07-25 10:03:00,
2013-07-25 06:08:00,73.3,71.8,29.79,NE,34,6.0,11.0,95,0.00,,---,0.00,VWS V14.01,2013-07-25 10:08:00,
2013-07-25 06:13:00,73.2,71.7,29.79,NE,47,11.0,11.0,95,0.00,,---,0.00,VWS V14.01,2013-07-25 10:13:00,
2013-07-25 06:18:00,73.1,71.6,29.79,NNE,32,9.0,11.0,95,0.00,,---,0.00,VWS V14.01,2013-07-25 10:18:00,
2013-07-25 06:23:00,73.0,71.5,29.79,NE,42,11.0,12.0,95,0.00,,---,0.00,VWS V14.01,2013-07-25 10:23:00,
2013-07-25 06:28:00,73.0,71.5,29.79,ENE,61,6.0,7.0,95,0.00,,---,0.00,VWS V14.01,2013-07-25 10:28:00,
2013-07-25 06:33:00,72.9,71.4,29.80,ENE,67,6.0,9.0,95,0.00,,---,0.00,VWS V14.01,2013-07-25 10:33:00,
2013-07-25 06:38:00,72.9,71.4,29.80,NE,56,9.0,9.0,95,0.00,,---,0.00,VWS V14.01,2013-07-25 10:38:00,
2013-07-25 06:43:00,73.1,71.3,29.80,NE,42,10.0,11.0,94,0.00,,---,0.00,VWS V14.01,2013-07-25 10:43:00,
2013-07-25 06:48:00,73.0,71.2,29.80,ENE,65,8.0,11.0,94,0.00,,---,0.00,VWS V14.01,2013-07-25 10:48:00,
2013-07-25 06:53:00,73.2,71.4,29.80,ENE,77,11.0,11.0,94,0.00,,---,0.00,VWS V14.01,2013-07-25 10:53:00,
2013-07-25 06:59:00,73.3,71.5,29.79,NE,53,8.0,11.0,94,0.00,,---,0.00,VWS V14.01,2013-07-25 10:59:00,
2013-07-25 07:04:00,73.2,71.1,29.80,ENE,58,10.0,11.0,93,0.00,,---,0.00,VWS V14.01,2013-07-25 11:04:00,
2013-07-25 07:09:00,73.4,71.6,29.80,NE,42,10.0,11.0,94,0.00,,---,0.00,VWS V14.01,2013-07-25 11:09:00,
2013-07-25 07:14:00,73.2,71.1,29.81,NE,34,9.0,12.0,93,0.00,,---,0.00,VWS V14.01,2013-07-25 11:14:00,
2013-07-25 07:19:00,73.2,71.1,29.81,NNE,32,10.0,12.0,93,0.00,,---,0.00,VWS V14.01,2013-07-25 11:19:00,
2013-07-25 07:24:00,73.1,71.0,29.81,NNE,24,5.0,12.0,93,0.00,,---,0.00,VWS V14.01,2013-07-25 11:24:00,
2013-07-25 07:29:00,73.1,71.0,29.80,NNE,29,6.0,10.0,93,0.00,,---,0.00,VWS V14.01,2013-07-25 11:29:00,
2013-07-25 07:34:00,73.0,70.9,29.80,NNE,14,7.0,11.0,93,0.00,,---,0.00,VWS V14.01,2013-07-25 11:34:00,
2013-07-25 07:39:00,73.1,71.0,29.80,NNE,20,11.0,12.0,93,0.00,,---,0.00,VWS V14.01,2013-07-25 11:39:00,
2013-07-25 07:44:00,73.1,71.0,29.80,NNE,18,7.0,12.0,93,0.00,,---,0.00,VWS V14.01,2013-07-25 11:44:00,
2013-07-25 07:49:00,73.3,71.2,29.80,NNE,23,9.0,12.0,93,0.00,,---,0.00,VWS V14.01,2013-07-25 11:49:00,
2013-07-25 07:54:00,73.5,71.4,29.80,NNE,30,6.0,13.0,93,0.00,,---,0.00,VWS V14.01,2013-07-25 11:54:00,
2013-07-25 07:59:00,73.5,71.4,29.81,NNE,25,11.0,13.0,93,0.00,,---,0.00,VWS V14.01,2013-07-25 11:59:00,
2013-07-25 08:04:00,73.6,71.5,29.81,North,360,14.0,15.0,93,0.00,,---,0.00,VWS V14.01,2013-07-25 12:04:00,
2013-07-25 08:09:00,73.6,71.5,29.81,North,355,11.0,15.0,93,0.00,,---,0.00,VWS V14.01,2013-07-25 12:09:00,
2013-07-25 08:14:00,73.7,71.6,29.82,NNE,16,11.0,15.0,93,0.00,,---,0.00,VWS V14.01,2013-07-25 12:14:00,
2013-07-25 08:20:00,73.9,71.8,29.82,North,360,10.0,15.0,93,0.00,,---,0.00,VWS V14.01,2013-07-25 12:20:00,
2013-07-25 08:25:00,74.1,71.6,29.81,North,5,13.0,15.0,92,0.00,,---,0.00,VWS V14.01,2013-07-25 12:25:00,
2013-07-25 08:30:00,74.2,71.7,29.82,NNE,21,11.0,15.0,92,0.00,,---,0.00,VWS V14.01,2013-07-25 12:30:00,
2013-07-25 08:35:00,74.5,72.0,29.82,North,5,12.0,15.0,92,0.00,,---,0.00,VWS V14.01,2013-07-25 12:35:00,
2013-07-25 08:40:00,74.7,72.2,29.82,NNE,19,9.0,15.0,92,0.00,,---,0.00,VWS V14.01,2013-07-25 12:40:00,
2013-07-25 08:45:00,75.0,72.2,29.82,NNE,13,10.0,15.0,91,0.00,,---,0.00,VWS V14.01,2013-07-25 12:45:00,
2013-07-25 08:50:00,75.2,72.4,29.82,North,5,12.0,15.0,91,0.00,,---,0.00,VWS V14.01,2013-07-25 12:50:00,
2013-07-25 08:55:00,75.3,72.2,29.83,North,11,11.0,15.0,90,0.00,,---,0.00,VWS V14.01,2013-07-25 12:55:00,
2013-07-25 09:00:00,75.5,72.4,29.83,NNE,32,10.0,12.0,90,0.00,,---,0.00,VWS V14.01,2013-07-25 13:00:00,
2013-07-25 09:05:00,75.5,72.0,29.83,NNE,22,13.0,15.0,89,0.00,,---,0.00,VWS V14.01,2013-07-25 13:05:00,
2013-07-25 09:10:00,75.7,72.2,29.83,NNE,24,9.0,15.0,89,0.00,,---,0.00,VWS V14.01,2013-07-25 13:10:00,
2013-07-25 09:15:00,75.9,72.4,29.83,NNE,27,8.0,16.0,89,0.00,,---,0.00,VWS V14.01,2013-07-25 13:15:00,
2013-07-25 09:20:00,76.0,72.5,29.83,North,360,10.0,16.0,89,0.00,,---,0.00,VWS V14.01,2013-07-25 13:20:00,
2013-07-25 09:25:00,76.1,72.6,29.83,NNE,19,11.0,16.0,89,0.00,,---,0.00,VWS V14.01,2013-07-25 13:25:00,
2013-07-25 09:30:00,76.2,72.7,29.83,NNE,15,11.0,12.0,89,0.00,,---,0.00,VWS V14.01,2013-07-25 13:30:00,
2013-07-25 09:35:00,76.3,72.8,29.83,North,5,9.0,12.0,89,0.00,,---,0.00,VWS V14.01,2013-07-25 13:35:00,
2013-07-25 09:40:00,76.4,72.9,29.82,NNE,24,11.0,12.0,89,0.00,,---,0.00,VWS V14.01,2013-07-25 13:40:00,
2013-07-25 09:45:00,76.5,72.7,29.83,North,360,9.0,12.0,88,0.00,,---,0.00,VWS V14.01,2013-07-25 13:45:00,
2013-07-25 09:50:00,76.8,73.0,29.83,NNE,20,10.0,12.0,88,0.00,,---,0.00,VWS V14.01,2013-07-25 13:50:00,
2013-07-25 09:55:00,76.9,73.1,29.83,North,360,7.0,12.0,88,0.00,,---,0.00,VWS V14.01,2013-07-25 13:55:00,
2013-07-25 10:00:00,77.0,72.8,29.82,North,355,11.0,13.0,87,0.00,,---,0.00,VWS V14.01,2013-07-25 14:00:00,
2013-07-25 10:06:00,77.2,73.0,29.83,NNE,19,12.0,15.0,87,0.00,,---,0.00,VWS V14.01,2013-07-25 14:06:00,
2013-07-25 10:11:00,77.5,73.0,29.83,North,355,9.0,15.0,86,0.00,,---,0.00,VWS V14.01,2013-07-25 14:11:00,
2013-07-25 10:16:00,77.6,73.1,29.83,NNE,23,11.0,15.0,86,0.00,,---,0.00,VWS V14.01,2013-07-25 14:16:00,
2013-07-25 10:21:00,77.6,72.7,29.83,North,5,13.0,15.0,85,0.00,,---,0.00,VWS V14.01,2013-07-25 14:21:00,
2013-07-25 10:26:00,77.8,73.3,29.83,NNE,29,12.0,15.0,86,0.00,,---,0.00,VWS V14.01,2013-07-25 14:26:00,
2013-07-25 10:31:00,77.9,73.0,29.83,North,5,12.0,15.0,85,0.00,,---,0.00,VWS V14.01,2013-07-25 14:31:00,
2013-07-25 10:36:00,78.2,73.0,29.84,NE,40,9.0,15.0,84,0.00,,---,0.00,VWS V14.01,2013-07-25 14:36:00,
2013-07-25 10:41:00,78.2,73.0,29.84,NNE,30,9.0,15.0,84,0.00,,---,0.00,VWS V14.01,2013-07-25 14:41:00,
2013-07-25 10:46:00,78.4,73.2,29.84,NNE,28,10.0,15.0,84,0.00,,---,0.00,VWS V14.01,2013-07-25 14:46:00,
2013-07-25 10:51:00,78.6,73.4,29.84,NE,38,5.0,15.0,84,0.00,,---,0.00,VWS V14.01,2013-07-25 14:51:00,
2013-07-25 10:57:00,78.5,72.9,29.84,NE,39,7.0,15.0,83,0.00,,---,0.00,VWS V14.01,2013-07-25 14:57:00,
2013-07-25 11:02:00,78.7,73.1,29.84,NE,38,6.0,9.0,83,0.00,,---,0.00,VWS V14.01,2013-07-25 15:02:00,
2013-07-25 11:07:00,78.8,73.2,29.84,North,5,5.0,10.0,83,0.00,,---,0.00,VWS V14.01,2013-07-25 15:07:00,
2013-07-25 11:12:00,79.0,73.4,29.85,NE,38,6.0,10.0,83,0.00,,---,0.00,VWS V14.01,2013-07-25 15:12:00,
2013-07-25 11:17:00,79.0,73.0,29.84,NE,34,4.0,11.0,82,0.00,,---,0.00,VWS V14.01,2013-07-25 15:17:00,
2013-07-25 11:22:00,79.2,73.2,29.84,NNE,27,4.0,11.0,82,0.00,,---,0.00,VWS V14.01,2013-07-25 15:22:00,
2013-07-25 11:27:00,79.1,73.1,29.84,East,84,2.0,11.0,82,0.00,,---,0.00,VWS V14.01,2013-07-25 15:27:00,
2013-07-25 11:32:00,79.2,73.2,29.85,NNE,14,6.0,8.0,82,0.00,,---,0.00,VWS V14.01,2013-07-25 15:32:00,
2013-07-25 11:37:00,79.5,73.9,29.85,NNE,19,5.0,8.0,83,0.00,,---,0.00,VWS V14.01,2013-07-25 15:37:00,
2013-07-25 11:42:00,79.6,73.6,29.85,North,9,7.0,11.0,82,0.00,,---,0.00,VWS V14.01,2013-07-25 15:42:00,
2013-07-25 11:47:00,79.8,73.4,29.85,NE,34,4.0,11.0,81,0.00,,---,0.00,VWS V14.01,2013-07-25 15:47:00,
2013-07-25 11:52:00,79.8,73.4,29.85,North,355,5.0,11.0,81,0.00,,---,0.00,VWS V14.01,2013-07-25 15:52:00,
2013-07-25 11:57:00,80.0,73.7,29.85,NNE,19,3.0,3.0,81,0.00,,---,0.00,VWS V14.01,2013-07-25 15:57:00,
2013-07-25 12:02:00,80.2,73.8,29.85,North,355,4.0,12.0,81,0.00,,---,0.00,VWS V14.01,2013-07-25 16:02:00,
2013-07-25 12:07:00,80.2,73.5,29.85,NNE,14,6.0,12.0,80,0.00,,---,0.00,VWS V14.01,2013-07-25 16:07:00,
2013-07-25 12:12:00,80.3,73.6,29.85,NNE,19,3.0,12.0,80,0.00,,---,0.00,VWS V14.01,2013-07-25 16:12:00,
2013-07-25 12:18:00,80.4,73.7,29.85,NNE,15,9.0,12.0,80,0.00,,---,0.00,VWS V14.01,2013-07-25 16:18:00,
2013-07-25 12:23:00,80.4,73.3,29.86,NNE,16,4.0,12.0,79,0.00,,---,0.00,VWS V14.01,2013-07-25 16:23:00,
2013-07-25 12:28:00,80.6,73.5,29.86,North,355,10.0,10.0,79,0.00,,---,0.00,VWS V14.01,2013-07-25 16:28:00,
2013-07-25 12:33:00,80.7,74.0,29.86,North,355,9.0,12.0,80,0.00,,---,0.00,VWS V14.01,2013-07-25 16:33:00,
2013-07-25 12:38:00,80.8,73.7,29.86,NNE,30,11.0,12.0,79,0.00,,---,0.00,VWS V14.01,2013-07-25 16:38:00,
2013-07-25 12:43:00,80.5,73.8,29.86,North,355,10.0,13.0,80,0.00,,---,0.00,VWS V14.01,2013-07-25 16:43:00,
2013-07-25 12:48:00,80.6,73.9,29.85,North,355,8.0,13.0,80,0.00,,---,0.00,VWS V14.01,2013-07-25 16:48:00,
2013-07-25 12:53:00,80.8,74.1,29.85,North,11,11.0,13.0,80,0.00,,---,0.00,VWS V14.01,2013-07-25 16:53:00,
2013-07-25 12:58:00,80.7,73.6,29.85,NNE,17,6.0,10.0,79,0.00,,---,0.00,VWS V14.01,2013-07-25 16:58:00,
2013-07-25 13:03:00,81.0,73.9,29.85,NNE,20,8.0,11.0,79,0.00,,---,0.00,VWS V14.01,2013-07-25 17:03:00,
2013-07-25 13:08:00,80.9,73.8,29.85,North,349,11.0,14.0,79,0.00,,---,0.00,VWS V14.01,2013-07-25 17:08:00,
2013-07-25 13:13:00,80.9,73.8,29.85,NNW,341,7.0,14.0,79,0.00,,---,0.00,VWS V14.01,2013-07-25 17:13:00,
2013-07-25 13:18:00,81.1,73.6,29.85,NNE,23,12.0,15.0,78,0.00,,---,0.00,VWS V14.01,2013-07-25 17:18:00,
2013-07-25 13:23:00,81.1,73.2,29.85,NNE,13,6.0,15.0,77,0.00,,---,0.00,VWS V14.01,2013-07-25 17:23:00,
2013-07-25 13:28:00,81.2,73.3,29.86,North,5,9.0,12.0,77,0.00,,---,0.00,VWS V14.01,2013-07-25 17:28:00,
2013-07-25 13:33:00,81.4,73.5,29.86,NNW,348,9.0,14.0,77,0.00,,---,0.00,VWS V14.01,2013-07-25 17:33:00,
2013-07-25 13:38:00,81.5,73.6,29.86,North,355,11.0,16.0,77,0.00,,---,0.00,VWS V14.01,2013-07-25 17:38:00,
2013-07-25 13:43:00,81.5,73.2,29.86,North,360,9.0,16.0,76,0.00,,---,0.00,VWS V14.01,2013-07-25 17:43:00,
2013-07-25 13:48:00,81.7,73.4,29.86,North,351,11.0,16.0,76,0.00,,---,0.00,VWS V14.01,2013-07-25 17:48:00,
2013-07-25 13:53:00,81.5,73.2,29.86,NNW,334,7.0,16.0,76,0.00,,---,0.00,VWS V14.01,2013-07-25 17:53:00,
2013-07-25 13:58:00,81.6,73.3,29.85,NW,312,8.0,9.0,76,0.00,,---,0.00,VWS V14.01,2013-07-25 17:58:00,
2013-07-25 14:04:00,81.9,73.2,29.85,NW,323,10.0,13.0,75,0.00,,---,0.00,VWS V14.01,2013-07-25 18:04:00,
2013-07-25 14:09:00,82.2,73.5,29.85,North,355,10.0,13.0,75,0.00,,---,0.00,VWS V14.01,2013-07-25 18:09:00,
2013-07-25 14:14:00,82.5,74.2,29.85,NW,314,9.0,13.0,76,0.00,,---,0.00,VWS V14.01,2013-07-25 18:14:00,
2013-07-25 14:19:00,82.5,73.8,29.85,NNW,348,8.0,13.0,75,0.00,,---,0.00,VWS V14.01,2013-07-25 18:19:00,
2013-07-25 14:24:00,82.7,73.2,29.85,North,360,5.0,13.0,73,0.00,,---,0.00,VWS V14.01,2013-07-25 18:24:00,
2013-07-25 14:29:00,82.9,73.4,29.85,NNW,347,9.0,10.0,73,0.00,,---,0.00,VWS V14.01,2013-07-25 18:29:00,
2013-07-25 14:34:00,83.2,74.1,29.85,NW,325,6.0,10.0,74,0.00,,---,0.00,VWS V14.01,2013-07-25 18:34:00,
2013-07-25 14:39:00,83.3,74.2,29.85,NNW,341,12.0,16.0,74,0.00,,---,0.00,VWS V14.01,2013-07-25 18:39:00,
2013-07-25 14:44:00,83.3,74.2,29.85,North,355,6.0,16.0,74,0.00,,---,0.00,VWS V14.01,2013-07-25 18:44:00,
2013-07-25 14:49:00,83.5,74.3,29.85,NNW,344,7.0,16.0,74,0.00,,---,0.00,VWS V14.01,2013-07-25 18:49:00,
2013-07-25 14:54:00,83.3,74.6,29.85,North,350,13.0,19.0,75,0.00,,---,0.00,VWS V14.01,2013-07-25 18:54:00,
2013-07-25 14:59:00,83.0,74.7,29.85,NNW,335,11.0,13.0,76,0.00,,---,0.00,VWS V14.01,2013-07-25 18:59:00,
2013-07-25 15:04:00,83.1,74.4,29.85,North,360,7.0,13.0,75,0.00,,---,0.00,VWS V14.01,2013-07-25 19:04:00,
2013-07-25 15:09:00,83.0,74.3,29.85,North,5,15.0,18.0,75,0.00,,---,0.00,VWS V14.01,2013-07-25 19:09:00,
2013-07-25 15:14:00,82.8,74.1,29.85,NNW,346,12.0,18.0,75,0.00,,---,0.00,VWS V14.01,2013-07-25 19:14:00,
2013-07-25 15:19:00,82.7,74.8,29.85,North,355,9.0,18.0,77,0.00,,---,0.00,VWS V14.01,2013-07-25 19:19:00,
2013-07-25 15:24:00,82.9,74.9,29.85,NNW,339,15.0,18.0,77,0.00,,---,0.00,VWS V14.01,2013-07-25 19:24:00,
2013-07-25 15:29:00,83.2,74.8,29.85,NNW,336,13.0,17.0,76,0.00,,---,0.00,VWS V14.01,2013-07-25 19:29:00,
2013-07-25 15:35:00,83.6,74.8,29.85,NNW,348,15.0,17.0,75,0.00,,---,0.00,VWS V14.01,2013-07-25 19:35:00,
2013-07-25 15:40:00,83.6,75.2,29.85,NNE,13,12.0,18.0,76,0.00,,---,0.00,VWS V14.01,2013-07-25 19:40:00,
2013-07-25 15:45:00,83.2,74.5,29.85,North,349,15.0,20.0,75,0.00,,---,0.00,VWS V14.01,2013-07-25 19:45:00,
2013-07-25 15:50:00,82.9,74.2,29.86,North,355,11.0,20.0,75,0.00,,---,0.00,VWS V14.01,2013-07-25 19:50:00,
2013-07-25 15:55:00,82.9,74.2,29.85,North,350,13.0,20.0,75,0.00,,---,0.00,VWS V14.01,2013-07-25 19:55:00,
2013-07-25 16:00:00,83.2,74.5,29.85,North,350,12.0,15.0,75,0.00,,---,0.00,VWS V14.01,2013-07-25 20:00:00,
2013-07-25 16:05:00,83.5,74.3,29.85,NNW,338,13.0,16.0,74,0.00,,---,0.00,VWS V14.01,2013-07-25 20:05:00,
2013-07-25 16:10:00,83.9,73.9,29.85,North,355,11.0,21.0,72,0.00,,---,0.00,VWS V14.01,2013-07-25 20:10:00,
2013-07-25 16:15:00,84.1,73.7,29.85,North,355,8.0,21.0,71,0.00,,---,0.00,VWS V14.01,2013-07-25 20:15:00,
2013-07-25 16:20:00,84.2,74.2,29.85,North,355,14.0,21.0,72,0.00,,---,0.00,VWS V14.01,2013-07-25 20:20:00,
2013-07-25 16:25:00,83.9,74.3,29.85,NNW,345,16.0,21.0,73,0.00,,---,0.00,VWS V14.01,2013-07-25 20:25:00,
2013-07-25 16:30:00,84.1,74.9,29.85,North,360,12.0,12.0,74,0.00,,---,0.00,VWS V14.01,2013-07-25 20:30:00,
2013-07-25 16:35:00,84.0,74.4,29.85,NNW,347,10.0,19.0,73,0.00,,---,0.00,VWS V14.01,2013-07-25 20:35:00,
2013-07-25 16:40:00,84.1,74.1,29.85,North,350,8.0,19.0,72,0.00,,---,0.00,VWS V14.01,2013-07-25 20:40:00,
2013-07-25 16:45:00,84.3,74.3,29.86,North,9,13.0,19.0,72,0.00,,---,0.00,VWS V14.01,2013-07-25 20:45:00,
2013-07-25 16:50:00,84.4,74.0,29.86,NNW,348,12.0,19.0,71,0.00,,---,0.00,VWS V14.01,2013-07-25 20:50:00,
2013-07-25 16:55:00,84.3,73.9,29.86,NNW,346,10.0,19.0,71,0.00,,---,0.00,VWS V14.01,2013-07-25 20:55:00,
2013-07-25 17:00:00,84.5,73.7,29.86,NNW,347,8.0,14.0,70,0.00,,---,0.00,VWS V14.01,2013-07-25 21:00:00,
2013-07-25 17:06:00,84.7,73.4,29.86,NNW,347,13.0,18.0,69,0.00,,---,0.00,VWS V14.01,2013-07-25 21:06:00,
2013-07-25 17:11:00,84.9,73.6,29.86,NNW,348,11.0,18.0,69,0.00,,---,0.00,VWS V14.01,2013-07-25 21:11:00,
2013-07-25 17:16:00,85.0,74.6,29.86,NNE,15,6.0,18.0,71,0.00,,---,0.00,VWS V14.01,2013-07-25 21:16:00,
2013-07-25 17:21:00,84.9,74.0,29.87,NNW,344,12.0,18.0,70,0.00,,---,0.00,VWS V14.01,2013-07-25 21:21:00,
2013-07-25 17:26:00,84.9,74.4,29.87,NNW,342,12.0,18.0,71,0.00,,---,0.00,VWS V14.01,2013-07-25 21:26:00,
2013-07-25 17:31:00,85.1,74.2,29.87,North,5,11.0,15.0,70,0.00,,---,0.00,VWS V14.01,2013-07-25 21:31:00,
2013-07-25 17:36:00,85.1,73.8,29.87,NNW,328,12.0,19.0,69,0.00,,---,0.00,VWS V14.01,2013-07-25 21:36:00,
2013-07-25 17:41:00,85.1,73.8,29.86,North,350,12.0,19.0,69,0.00,,---,0.00,VWS V14.01,2013-07-25 21:41:00,
2013-07-25 17:46:00,85.2,73.4,29.87,NNW,335,11.0,19.0,68,0.00,,---,0.00,VWS V14.01,2013-07-25 21:46:00,
2013-07-25 17:52:00,85.2,74.7,29.87,NNW,328,14.0,19.0,71,0.00,,---,0.00,VWS V14.01,2013-07-25 21:52:00,
2013-07-25 17:57:00,85.1,74.2,29.87,North,355,11.0,19.0,70,0.00,,---,0.00,VWS V14.01,2013-07-25 21:57:00,
2013-07-25 18:02:00,85.1,74.2,29.87,North,355,12.0,15.0,70,0.00,,---,0.00,VWS V14.01,2013-07-25 22:02:00,
2013-07-25 18:07:00,85.2,74.7,29.87,NNW,347,10.0,15.0,71,0.00,,---,0.00,VWS V14.01,2013-07-25 22:07:00,
2013-07-25 18:12:00,85.2,74.7,29.87,North,355,11.0,17.0,71,0.00,,---,0.00,VWS V14.01,2013-07-25 22:12:00,
2013-07-25 18:17:00,85.1,73.8,29.87,North,355,13.0,17.0,69,0.00,,---,0.00,VWS V14.01,2013-07-25 22:17:00,
2013-07-25 18:22:00,85.1,74.6,29.87,NNE,22,15.0,17.0,71,0.00,,---,0.00,VWS V14.01,2013-07-25 22:22:00,
2013-07-25 18:27:00,84.8,73.9,29.88,North,355,13.0,17.0,70,0.00,,---,0.00,VWS V14.01,2013-07-25 22:27:00,
2013-07-25 18:32:00,84.6,72.9,29.88,North,350,15.0,16.0,68,0.00,,---,0.00,VWS V14.01,2013-07-25 22:32:00,
2013-07-25 18:37:00,84.7,73.0,29.88,North,5,9.0,16.0,68,0.00,,---,0.00,VWS V14.01,2013-07-25 22:37:00,
2013-07-25 18:42:00,84.8,73.5,29.88,North,355,11.0,16.0,69,0.00,,---,0.00,VWS V14.01,2013-07-25 22:42:00,
2013-07-25 18:48:00,84.9,73.6,29.88,North,355,9.0,16.0,69,0.00,,---,0.00,VWS V14.01,2013-07-25 22:48:00,
2013-07-25 18:53:00,84.8,73.9,29.89,North,360,9.0,16.0,70,0.00,,---,0.00,VWS V14.01,2013-07-25 22:53:00,
2013-07-25 18:58:00,84.8,73.9,29.89,NNE,22,13.0,13.0,70,0.00,,---,0.00,VWS V14.01,2013-07-25 22:58:00,
2013-07-25 19:03:00,84.7,74.3,29.89,NNE,28,14.0,14.0,71,0.00,,---,0.00,VWS V14.01,2013-07-25 23:03:00,
2013-07-25 19:08:00,84.4,73.6,29.89,NNE,17,14.0,16.0,70,0.00,,---,0.00,VWS V14.01,2013-07-25 23:08:00,
2013-07-25 19:13:00,84.1,73.7,29.89,NNE,24,10.0,16.0,71,0.00,,---,0.00,VWS V14.01,2013-07-25 23:13:00,
2013-07-25 19:18:00,84.0,73.6,29.89,NNE,15,11.0,16.0,71,0.00,,---,0.00,VWS V14.01,2013-07-25 23:18:00,
2013-07-25 19:23:00,83.8,73.8,29.90,North,9,12.0,16.0,72,0.00,,---,0.00,VWS V14.01,2013-07-25 23:23:00,
2013-07-25 19:28:00,83.5,73.9,29.90,NNE,21,8.0,10.0,73,0.00,,---,0.00,VWS V14.01,2013-07-25 23:28:00,
2013-07-25 19:33:00,83.3,74.2,29.90,NNE,31,7.0,12.0,74,0.00,,---,0.00,VWS V14.01,2013-07-25 23:33:00,
2013-07-25 19:38:00,83.0,74.3,29.91,NE,37,11.0,13.0,75,0.00,,---,0.00,VWS V14.01,2013-07-25 23:38:00,
2013-07-25 19:43:00,82.8,74.1,29.91,NE,36,10.0,13.0,75,0.00,,---,0.00,VWS V14.01,2013-07-25 23:43:00,
2013-07-25 19:48:00,82.7,74.0,29.90,NE,39,11.0,13.0,75,0.00,,---,0.00,VWS V14.01,2013-07-25 23:48:00,
2013-07-25 19:53:00,82.5,74.2,29.91,NNE,28,10.0,13.0,76,0.00,,---,0.00,VWS V14.01,2013-07-25 23:53:00,
2013-07-25 19:58:00,82.4,74.1,29.92,NNE,32,12.0,15.0,76,0.00,,---,0.00,VWS V14.01,2013-07-25 23:58:00,
2013-07-25 20:03:00,82.1,74.2,29.92,NNE,28,13.0,17.0,77,0.00,,---,0.00,VWS V14.01,2013-07-26 00:03:00,
2013-07-25 20:08:00,82.0,74.1,29.92,NNE,15,15.0,17.0,77,0.00,,---,0.00,VWS V14.01,2013-07-26 00:08:00,
2013-07-25 20:13:00,81.9,74.4,29.92,NNE,32,11.0,17.0,78,0.00,,---,0.00,VWS V14.01,2013-07-26 00:13:00,
2013-07-25 20:18:00,81.7,74.2,29.92,North,9,9.0,17.0,78,0.00,,---,0.00,VWS V14.01,2013-07-26 00:18:00,
2013-07-25 20:24:00,81.5,74.0,29.92,NE,35,13.0,17.0,78,0.00,,---,0.00,VWS V14.01,2013-07-26 00:24:00,
2013-07-25 20:29:00,81.5,74.4,29.92,NE,40,10.0,11.0,79,0.00,,---,0.00,VWS V14.01,2013-07-26 00:29:00,
2013-07-25 20:34:00,81.3,74.2,29.93,NNE,19,8.0,13.0,79,0.00,,---,0.00,VWS V14.01,2013-07-26 00:34:00,
2013-07-25 20:39:00,81.2,74.4,29.92,NNE,33,9.0,13.0,80,0.00,,---,0.00,VWS V14.01,2013-07-26 00:39:00,
2013-07-25 20:44:00,80.9,74.2,29.93,NE,34,10.0,13.0,80,0.00,,---,0.00,VWS V14.01,2013-07-26 00:44:00,
2013-07-25 20:49:00,80.7,74.0,29.93,NNE,29,8.0,13.0,80,0.00,,---,0.00,VWS V14.01,2013-07-26 00:49:00,
2013-07-25 20:54:00,80.5,74.1,29.93,NE,41,6.0,13.0,81,0.00,,---,0.00,VWS V14.01,2013-07-26 00:54:00,
2013-07-25 20:59:00,80.3,73.9,29.93,NE,46,5.0,9.0,81,0.00,,---,0.00,VWS V14.01,2013-07-26 00:59:00,
2013-07-25 21:04:00,80.2,74.2,29.93,NE,55,5.0,9.0,82,0.00,,---,0.00,VWS V14.01,2013-07-26 01:04:00,
2013-07-25 21:09:00,80.0,74.0,29.93,NE,47,5.0,9.0,82,0.00,,---,0.00,VWS V14.01,2013-07-26 01:09:00,
2013-07-25 21:14:00,79.9,74.3,29.94,NNE,21,5.0,9.0,83,0.00,,---,0.00,VWS V14.01,2013-07-26 01:14:00,
2013-07-25 21:19:00,79.6,74.0,29.94,NNE,31,6.0,9.0,83,0.00,,---,0.00,VWS V14.01,2013-07-26 01:19:00,
2013-07-25 21:24:00,79.4,73.8,29.94,North,5,3.0,9.0,83,0.00,,---,0.00,VWS V14.01,2013-07-26 01:24:00,
2013-07-25 21:29:00,79.3,74.1,29.94,NNE,32,6.0,7.0,84,0.00,,---,0.00,VWS V14.01,2013-07-26 01:29:00,
2013-07-25 21:34:00,79.2,73.9,29.95,NNE,25,6.0,7.0,84,0.00,,---,0.00,VWS V14.01,2013-07-26 01:34:00,
2013-07-25 21:40:00,79.1,73.8,29.95,NNE,30,7.0,7.0,84,0.00,,---,0.00,VWS V14.01,2013-07-26 01:40:00,
2013-07-25 21:45:00,79.0,73.8,29.95,NNE,21,6.0,8.0,84,0.00,,---,0.00,VWS V14.01,2013-07-26 01:45:00,
2013-07-25 21:50:00,78.8,73.6,29.95,NNE,26,5.0,8.0,84,0.00,,---,0.00,VWS V14.01,2013-07-26 01:50:00,
2013-07-25 21:55:00,78.7,73.5,29.95,NNE,15,4.0,8.0,84,0.00,,---,0.00,VWS V14.01,2013-07-26 01:55:00,
2013-07-25 22:00:00,78.6,73.7,29.96,NNE,26,6.0,9.0,85,0.00,,---,0.00,VWS V14.01,2013-07-26 02:00:00,
2013-07-25 22:05:00,78.5,73.6,29.96,NE,37,5.0,9.0,85,0.00,,---,0.00,VWS V14.01,2013-07-26 02:05:00,
2013-07-25 22:10:00,78.4,73.5,29.97,NNE,30,6.0,9.0,85,0.00,,---,0.00,VWS V14.01,2013-07-26 02:10:00,
2013-07-25 22:15:00,78.3,73.4,29.97,NNE,15,5.0,9.0,85,0.00,,---,0.00,VWS V14.01,2013-07-26 02:15:00,
2013-07-25 22:20:00,78.2,73.7,29.97,NNE,12,5.0,9.0,86,0.00,,---,0.00,VWS V14.01,2013-07-26 02:20:00,
2013-07-25 22:25:00,78.0,73.5,29.97,NNE,17,5.0,9.0,86,0.00,,---,0.00,VWS V14.01,2013-07-26 02:25:00,
2013-07-25 22:30:00,77.7,73.2,29.97,NNE,17,8.0,9.0,86,0.00,,---,0.00,VWS V14.01,2013-07-26 02:30:00,
2013-07-25 22:35:00,77.5,73.3,29.97,NNE,24,7.0,9.0,87,0.00,,---,0.00,VWS V14.01,2013-07-26 02:35:00,
2013-07-25 22:40:00,77.4,73.2,29.97,NNE,28,9.0,11.0,87,0.00,,---,0.00,VWS V14.01,2013-07-26 02:40:00,
2013-07-25 22:45:00,77.3,73.1,29.97,NE,41,9.0,11.0,87,0.00,,---,0.00,VWS V14.01,2013-07-26 02:45:00,
2013-07-25 22:50:00,77.3,73.1,29.97,NNE,33,12.0,12.0,87,0.00,,---,0.00,VWS V14.01,2013-07-26 02:50:00,
2013-07-25 22:55:00,77.3,73.1,29.97,NE,39,11.0,13.0,87,0.00,,---,0.00,VWS V14.01,2013-07-26 02:55:00,
2013-07-25 23:00:00,77.3,72.8,29.97,NE,46,10.0,11.0,86,0.00,,---,0.00,VWS V14.01,2013-07-26 03:00:00,
2013-07-25 23:05:00,77.2,72.7,29.97,ENE,58,8.0,12.0,86,0.00,,---,0.00,VWS V14.01,2013-07-26 03:05:00,
2013-07-25 23:11:00,77.0,72.5,29.97,NE,39,11.0,12.0,86,0.00,,---,0.00,VWS V14.01,2013-07-26 03:11:00,
2013-07-25 23:16:00,77.0,72.5,29.97,ENE,61,9.0,12.0,86,0.00,,---,0.00,VWS V14.01,2013-07-26 03:16:00,
2013-07-25 23:21:00,77.0,72.8,29.97,ENE,59,11.0,12.0,87,0.00,,---,0.00,VWS V14.01,2013-07-26 03:21:00,
2013-07-25 23:26:00,77.0,72.8,29.97,NE,51,12.0,12.0,87,0.00,,---,0.00,VWS V14.01,2013-07-26 03:26:00,
2013-07-25 23:31:00,76.9,72.7,29.97,ENE,57,9.0,12.0,87,0.00,,---,0.00,VWS V14.01,2013-07-26 03:31:00,
2013-07-25 23:36:00,76.9,72.7,29.98,NE,51,7.0,12.0,87,0.00,,---,0.00,VWS V14.01,2013-07-26 03:36:00,
2013-07-25 23:41:00,76.8,72.6,29.98,NE,53,7.0,12.0,87,0.00,,---,0.00,VWS V14.01,2013-07-26 03:41:00,
2013-07-25 23:46:00,76.7,72.5,29.98,NE,50,9.0,12.0,87,0.00,,---,0.00,VWS V14.01,2013-07-26 03:46:00,
2013-07-25 23:51:00,76.6,72.4,29.98,NE,55,6.0,12.0,87,0.00,,---,0.00,VWS V14.01,2013-07-26 03:51:00,
2013-07-25 23:56:00,76.5,72.3,29.98,NE,44,9.0,12.0,87,0.00,,---,0.00,VWS V14.01,2013-07-26 03:56:00,